Вернуться в каталог

CZ-4 DEB

АктивенSSO
NORAD 26154·DEBRIS·🇨🇳 China

Запущен Oct 14, 1999 с Taiyuan Satellite Launch Center

Loading…

Ближайшие Пролёты (ближайшие 24 часа)

TLE

СвежийSource: Space-Track

Эпоха: Sep 11, 2026, 17:48 UTC

1 26154U 99057AQ  26254.74191128  .00000603  00000-0  53812-3 0  9991
2 26154  99.5421 173.7954 0517031 294.5351  60.2724 13.40434360290226

Отслеживайте CZ-4 DEB в реальном времени с AllMySat

Download on the App Store